Wind_Speed
31 31 33 30 30 27 26 26 29 32 34 36 43 46 46 46 47 42 37 40 42 48 48 48 45 45 44 43 43 41 40 35
35 35 33 31 30 30 32 34 40 45 46 39 39 40 40 44 46 47 44 42 44 45 54 57 54 53 51 49 50 48 45 41
36 38 37 36 36 38 37 40 45 48 45 45 45 41 37 41 45 45 47 48 49 50 52 57 61 59 55 55 56 54 51 48
35 36 40 39 40 41 43 47 48 50 52 50 47 45 44 41 39 46 48 51 52 56 56 59 62 63 63 65 58 58 57 55
31 33 36 38 39 43 45 47 52 55 53 47 45 47 48 46 46 41 43 49 53 56 56 56 62 61 59 63 63 63 60 62
28 27 30 34 39 40 40 41 43 45 44 45 45 45 48 51 50 48 47 44 49 59 60 61 62 61 60 57 63 71 62 73
19 22 26 29 33 38 42 44 45 47 45 45 46 48 50 50 51 53 52 50 48 50 62 67 67 66 61 60 63 54 60 54
23 27 29 32 36 38 42 46 46 44 43 44 45 47 47 49 49 49 53 56 54 49 51 60 71 70 67 65 62 56 50 52
28 31 35 40 42 43 46 49 47 45 45 47 48 47 47 46 50 54 53 53 54 51 46 51 57 71 71 66 63 59 54 48
32 37 42 44 46 47 48 47 45 45 45 45 44 44 43 45 52 49 47 46 45 48 43 43 48 54 68 67 60 58 55 55
34 40 43 47 48 48 46 44 41 39 38 39 40 37 40 47 47 42 42 42 40 39 36 37 37 37 32 61 67 56 51 50
36 39 43 44 42 41 39 38 36 36 36 36 37 35 40 45 42 41 41 37 35 31 32 33 37 38 40 35 55 61 58 54
37 40 40 36 34 32 31 32 33 33 34 34 33 37 37 41 37 37 38 34 28 30 31 33 34 28 33 34 41 54 54 55
35 36 34 32 30 29 31 33 33 32 33 34 34 35 34 40 37 32 32 28 23 22 24 27 31 30 25 31 33 38 36 48
32 30 27 27 29 31 32 34 35 34 34 34 34 35 34 35 37 32 28 25 21 20 17 20 27 26 32 21 29 45 43 39
28 24 25 28 31 33 33 34 33 33 33 33 33 34 34 34 38 33 29 25 22 18 17 16 20 28 30 29 18 40 44 40
23 23 27 30 32 34 33 33 33 33 34 33 32 32 33 32 30 33 32 29 24 20 15 14 19 22 26 26 21 18 33 46
25 26 28 30 33 33 33 33 34 34 35 34 32 30 30 30 28 26 26 25 24 22 21 14 18 13 11 9 20 27 18 21
26 26 28 31 32 31 33 34 34 34 33 33 33 31 28 27 26 25 24 23 23 20 19 19 18 8 6 5 4 6 11 17
Wind_Direction
263 270 277 284 297 302 311 310 310 308 297 284 272 266 267 271 272 267 259 257 253 243 244 243 249 254 252 248 250 249 249 250
267 273 278 287 300 306 309 311 316 313 310 297 280 275 267 264 270 268 263 256 254 255 248 240 241 249 251 253 253 251 249 249
260 269 277 284 296 299 307 311 314 315 312 308 302 294 283 271 259 262 265 261 255 255 254 252 242 240 246 250 251 252 251 250
262 266 275 286 297 303 310 314 318 318 315 309 302 299 294 288 281 268 257 260 258 255 255 254 243 243 245 244 249 250 251 251
263 270 277 290 299 309 316 321 321 320 317 311 308 305 299 294 286 276 272 261 253 255 255 247 239 245 246 244 246 248 249 246
272 280 288 300 307 318 323 325 322 317 312 307 308 306 306 300 296 290 281 272 262 249 246 249 248 246 245 248 247 250 255 259
288 309 315 319 325 325 324 323 321 318 312 308 309 309 305 301 296 293 293 284 273 262 251 245 246 250 249 249 253 254 255 262
319 320 321 324 326 322 317 316 314 310 310 308 309 309 305 302 297 293 291 291 283 273 262 253 246 246 246 249 250 252 254 260
328 325 326 330 327 323 320 319 314 309 309 311 311 309 305 303 300 301 296 289 283 277 268 259 254 245 245 247 248 249 252 256
326 327 330 328 326 323 319 315 313 310 308 307 308 309 308 306 306 300 295 290 283 278 275 258 253 250 244 240 244 245 249 252
322 326 326 327 324 321 320 317 315 315 314 313 313 313 316 316 310 302 304 297 289 279 275 268 262 251 267 240 239 243 242 246
323 323 325 324 324 323 322 321 322 322 322 321 319 319 320 321 314 314 312 302 293 286 271 275 269 256 253 246 236 238 241 244
322 327 327 325 322 321 319 320 324 326 323 327 325 324 323 328 323 319 313 306 292 293 284 266 258 273 260 253 244 231 237 242
324 324 322 322 323 324 325 324 324 326 324 327 331 334 329 333 333 322 321 312 286 283 289 274 266 260 250 224 229 228 232 241
317 315 316 319 320 325 324 322 324 325 323 324 330 333 335 333 339 332 328 326 309 276 286 286 267 263 257 213 231 232 224 230
313 312 317 321 324 324 323 322 323 323 322 324 327 330 333 335 337 340 337 329 330 305 284 281 282 262 253 238 237 207 205 221
309 314 320 322 321 323 325 326 327 325 323 323 325 325 328 330 334 338 344 347 325 323 300 291 295 288 278 268 263 219 190 214
303 310 317 320 321 324 327 330 330 325 323 323 322 322 322 325 330 336 336 338 342 336 326 310 307 273 284 291 257 244 211 202
303 313 318 317 321 325 327 329 329 326 327 327 326 324 321 320 325 329 331 333 336 335 325 342 344 288 260 358 325 312 256 214
Height
3123 3123 3123 3123 3123 3121 3118 3116 3114 3112 3109 3106 3104 3104 3102 3099 3099 3100 3100 3099 3098 3095 3096 3100 3103 3103 3103 3104 3106 3106 3107 3110
3120 3119 3118 3117 3115 3113 3112 3109 3106 3102 3099 3097 3096 3093 3092 3091 3087 3089 3089 3088 3088 3086 3085 3088 3092 3093 3093 3095 3094 3095 3097 3100
3114 3114 3113 3111 3109 3107 3105 3103 3101 3097 3092 3087 3083 3081 3081 3078 3078 3077 3076 3076 3077 3076 3074 3074 3076 3077 3078 3081 3083 3084 3087 3087
3108 3109 3107 3105 3103 3101 3098 3094 3092 3089 3085 3081 3077 3072 3069 3067 3066 3064 3065 3063 3064 3063 3063 3060 3062 3064 3066 3067 3070 3073 3073 3075
3104 3104 3103 3100 3098 3095 3092 3087 3081 3078 3074 3071 3065 3059 3054 3053 3050 3052 3051 3050 3049 3048 3048 3048 3048 3051 3052 3055 3056 3057 3057 3056
3103 3101 3099 3098 3095 3090 3085 3081 3076 3071 3067 3062 3056 3051 3047 3040 3037 3034 3036 3036 3033 3033 3033 3035 3033 3035 3038 3040 3043 3044 3036 3027
3099 3098 3096 3093 3088 3082 3076 3072 3068 3063 3058 3055 3048 3041 3036 3031 3025 3021 3019 3019 3018 3017 3016 3018 3019 3020 3023 3026 3029 3028 3026 3028
3095 3092 3089 3086 3083 3077 3073 3068 3063 3058 3053 3048 3042 3036 3029 3021 3015 3011 3006 3001 3000 3001 2999 2999 3003 3005 3008 3012 3015 3019 3020 3018
3088 3085 3081 3077 3073 3069 3063 3058 3052 3048 3043 3038 3032 3026 3020 3014 3006 2999 2993 2986 2981 2981 2983 2983 2983 2987 2991 2996 3000 3005 3008 3010
3082 3078 3074 3070 3066 3060 3056 3050 3044 3039 3034 3029 3024 3017 3011 3004 2997 2989 2980 2973 2969 2965 2965 2967 2968 2969 2974 2981 2985 2991 2998 2999
3079 3075 3070 3063 3059 3053 3047 3042 3037 3032 3026 3019 3014 3008 3002 2994 2985 2978 2971 2963 2959 2955 2954 2954 2953 2956 2957 2964 2970 2978 2983 2989
3076 3072 3067 3061 3054 3047 3041 3035 3030 3024 3018 3011 3006 2999 2992 2984 2975 2966 2959 2954 2949 2946 2946 2945 2945 2946 2947 2949 2953 2961 2969 2975
3069 3063 3058 3054 3050 3045 3040 3033 3027 3021 3014 3007 3000 2992 2985 2977 2968 2960 2952 2946 2941 2938 2937 2936 2936 2935 2936 2938 2939 2945 2954 2961
3064 3059 3055 3050 3045 3041 3034 3028 3022 3016 3009 3002 2995 2987 2980 2973 2964 2955 2947 2940 2935 2933 2930 2928 2928 2928 2925 2925 2932 2936 2941 2948
3061 3057 3052 3047 3042 3036 3030 3023 3017 3010 3003 2997 2989 2982 2976 2969 2960 2951 2943 2936 2931 2928 2924 2921 2920 2921 2920 2917 2924 2926 2932 2939
3054 3051 3047 3041 3035 3031 3025 3018 3012 3005 2998 2992 2984 2978 2971 2964 2958 2950 2940 2934 2929 2925 2921 2918 2916 2915 2915 2914 2913 2914 2919 2924
3049 3045 3041 3036 3031 3026 3020 3013 3007 3000 2993 2987 2980 2975 2968 2961 2955 2947 2940 2933 2926 2922 2919 2917 2915 2912 2911 2909 2908 2907 2907 2918
3044 3041 3037 3032 3026 3021 3014 3008 3001 2994 2988 2981 2976 2971 2965 2958 2952 2946 2939 2933 2928 2922 2918 2914 2911 2910 2908 2906 2902 2898 2904 2903
3039 3035 3031 3027 3022 3016 3009 3003 2996 2990 2984 2977 2971 2965 2960 2955 2950 2944 2938 2933 2927 2922 2918 2913 2909 2907 2906 2904 2903 2905 2905 2902